Weather History for KAOH - October, 2013

Change the Weather History Date:

Tuesday, October 22, 2013

  Actual Average (KFDY) Record (KFDY)
Temperature  
Mean Temperature 42 °F -  
Max Temperature 51 °F 59 °F 81 °F (1963)
Min Temperature 33 °F 40 °F 26 °F (1997)
Degree Days  
Heating Degree Days 24    
Moisture  
Dew Point 29 °F    
Average Humidity 67    
Maximum Humidity 87    
Minimum Humidity 36    
Precipitation  
Precipitation 0.08 in - - ()
Sea Level Pressure  
Sea Level Pressure 29.95 in    
Wind  
Wind Speed 9 mph (West)    
Max Wind Speed 14 mph    
Max Gust Speed 22 mph    
Visibility 10 miles    
Events Rain    
Averages and records for this station are not official NWS values.
T = Trace of Precipitation, MM = Missing Value Source: NWS Daily Summary

Daily Weather History Graph

Daily Weather History Graph

Search for Another Location

Airport or City:

Trip Planner

Search our weather history database for the weather conditions in past years. The results will help you decide how hot, cold, wet, or windy it might be!

Date:

Astronomy

Oct. 22, 2013 Rise Set
Actual Time 7:55 AM EDT 6:45 PM EDT
Civil Twilight 7:27 AM EDT 7:13 PM EDT
Nautical Twilight 6:55 AM EDT 7:44 PM EDT
Astronomical Twilight 6:23 AM EDT 8:16 PM EDT
Moon 9:23 PM EDT (10/22) 11:23 AM EDT (10/22)
Length of Visible Light 11h 45m
Length of Day
10h 49m
Waning Gibbous, 87% of the Moon is Illuminated
Oct 22
Waning Gibbous
Oct 26
Last Quarter
Nov 3
New
Nov 10
First Quarter
Nov 17
Full

Hourly Weather History & Observations

Time (EDT) Temp. Windchill Dew Point Humidity Pressure Visibility Wind Dir Wind Speed Gust Speed Precip Events Conditions
12:53 AM 42.1 °F 35.2 °F 30.9 °F 65% 29.94 in 10.0 mi WNW 12.7 mph - N/A   Partly Cloudy
1:53 AM 39.0 °F 32.3 °F 28.0 °F 65% 29.95 in 10.0 mi West 10.4 mph 18.4 mph N/A   Clear
2:53 AM 37.0 °F 30.4 °F 28.0 °F 70% 29.96 in 10.0 mi West 9.2 mph - N/A   Clear
3:53 AM 36.0 °F 28.5 °F 27.0 °F 70% 29.96 in 10.0 mi WSW 10.4 mph - N/A   Clear
4:53 AM 35.1 °F 27.9 °F 27.0 °F 72% 29.98 in 10.0 mi WSW 9.2 mph - N/A   Clear
5:53 AM 34.0 °F 27.2 °F 26.1 °F 73% 29.99 in 10.0 mi WSW 8.1 mph - N/A   Clear
6:53 AM 33.1 °F 26.9 °F 26.1 °F 75% 29.99 in 10.0 mi SW 6.9 mph - N/A   Clear
7:53 AM 33.1 °F 26.9 °F 25.0 °F 72% 30.00 in 10.0 mi SW 6.9 mph - N/A   Clear
8:53 AM 35.1 °F 28.6 °F 26.1 °F 70% 30.01 in 10.0 mi WSW 8.1 mph - N/A   Clear
9:53 AM 39.0 °F 32.3 °F 27.0 °F 62% 30.02 in 10.0 mi WSW 10.4 mph - N/A   Clear
10:53 AM 43.0 °F 36.0 °F 28.9 °F 58% 30.01 in 10.0 mi West 13.8 mph 21.9 mph N/A   Clear
11:53 AM 45.0 °F 38.9 °F 28.0 °F 52% 29.99 in 10.0 mi West 12.7 mph - N/A   Clear
12:53 PM 48.0 °F - 28.0 °F 46% 29.98 in 10.0 mi WSW 10.4 mph - N/A   Clear
1:53 PM 48.0 °F - 26.1 °F 42% 29.95 in 10.0 mi SW 9.2 mph - N/A   Clear
2:53 PM 50.0 °F - 25.0 °F 38% 29.93 in 10.0 mi West 12.7 mph 16.1 mph N/A   Clear
3:53 PM 50.0 °F - 24.1 °F 36% 29.91 in 10.0 mi SW 12.7 mph 17.3 mph N/A   Clear
4:53 PM 48.9 °F - 24.1 °F 38% 29.92 in 10.0 mi WSW 9.2 mph - N/A   Overcast
5:53 PM 48.0 °F - 21.9 °F 36% 29.91 in 10.0 mi SSW 9.2 mph 18.4 mph N/A   Overcast
6:53 PM 46.0 °F 41.9 °F 26.1 °F 46% 29.92 in 10.0 mi WSW 8.1 mph - N/A   Overcast
7:53 PM 41.0 °F 36.4 °F 32.0 °F 70% 29.94 in 9.0 mi WNW 6.9 mph - 0.00 in Rain Light Rain
8:44 PM 39.2 °F 34.2 °F 33.8 °F 81% 29.92 in 10.0 mi NW 6.9 mph - 0.01 in Rain Light Rain
8:53 PM 39.0 °F 34.0 °F 33.1 °F 79% 29.94 in 10.0 mi NNW 6.9 mph - 0.02 in Rain Light Rain
9:00 PM 39.2 °F 33.6 °F 33.8 °F 81% 29.92 in 10.0 mi NNW 8.1 mph - 0.00 in Rain Light Rain
9:10 PM 37.4 °F 32.1 °F 33.8 °F 87% 29.92 in 10.0 mi North 6.9 mph - 0.00 in Rain Light Rain
9:19 PM 37.4 °F 32.8 °F 33.8 °F 87% 29.92 in 10.0 mi North 5.8 mph - 0.00 in Rain Light Rain
9:53 PM 37.0 °F 33.3 °F 33.1 °F 86% 29.94 in 8.0 mi North 4.6 mph - 0.01 in Rain Light Rain
10:53 PM 37.0 °F 33.3 °F 33.1 °F 86% 29.94 in 7.0 mi NNE 4.6 mph - 0.03 in Rain Light Rain
11:14 PM 37.4 °F - 33.8 °F 87% 29.91 in 9.0 mi Calm Calm - 0.01 in Rain Light Rain
11:42 PM 37.4 °F 34.9 °F 33.8 °F 87% 29.90 in 8.0 mi ENE 3.5 mph - 0.02 in Rain Light Rain
11:49 PM 37.4 °F 34.9 °F 33.8 °F 87% 29.90 in 8.0 mi ENE 3.5 mph - 0.02 in Rain Light Rain
11:53 PM 37.0 °F 34.5 °F 33.1 °F 86% 29.91 in 8.0 mi NE 3.5 mph - 0.02 in Rain Light Rain